7M1JBF-13 Weather Reports


Display with metric or nautical units.
time (UTC)temp
F
wind
direction
speed
MPH
gust
MPH
rain 1hr
in
rain 24hr
in
rain mn
in
humidity
%
barometer
mb
20260505173323 49 294 0.0 0.0 0.00 0.00 0.00 94 1022.9
20260505172324 49 294 0.0 0.0 0.00 0.00 0.00 94 1023.0
20260505171411 48 294 0.0 0.0 0.00 0.00 0.00 93 1023.1
20260505170323 49 294 0.0 0.0 0.00 0.00 0.00 93 1022.9
20260505165327 49 294 0.0 0.0 0.00 0.00 0.00 92 1023.0
20260505164332 49 294 0.0 1.0 0.00 0.00 0.00 92 1022.9
20260505163324 49 294 0.0 0.0 0.00 0.00 0.00 91 1023.1
20260505162349 49 294 0.0 0.0 0.00 0.00 0.00 89 1023.1
20260505161324 50 294 0.0 0.0 0.00 0.00 0.00 88 1023.2
20260505160341 51 294 0.0 1.0 0.00 0.00 0.00 86 1023.3
20260505153339 54 294 0.0 1.0 0.00 0.00 0.00 80 1023.4
20260505152342 54 294 0.0 1.0 0.00 0.00 0.00 79 1023.4
20260505151333 56 288 0.0 5.0 0.00 0.00 0.00 76 1023.3
20260505150327 56 290 2.0 6.0 0.00 0.00 0.00 75 1023.4
20260505140405 57 294 1.0 6.0 0.00 0.00 0.00 72 1023.4
20260505124342 56 311 0.0 5.0 0.00 0.00 0.00 70 1023.2
20260505123334 56 301 2.0 5.0 0.00 0.00 0.00 70 1023.3
20260505122330 56 308 2.0 6.0 0.00 0.00 0.00 71 1023.3
20260505121333 55 318 1.0 4.0 0.00 0.00 0.00 73 1023.2
20260505120326 55 289 0.0 5.0 0.00 0.00 0.00 76 1023.1
20260505115334 54 304 1.0 4.0 0.00 0.00 0.00 80 1023.1
20260505114336 53 272 0.0 1.0 0.00 0.00 0.00 82 1023.0
20260505113330 54 272 0.0 1.0 0.00 0.00 0.00 81 1022.9
20260505112340 55 272 0.0 0.0 0.00 0.00 0.00 77 1022.8
20260505111334 57 272 0.0 2.0 0.00 0.00 0.00 74 1022.7
20260505110329 58 298 0.0 7.0 0.00 0.00 0.00 71 1022.6
20260505101340 59 300 2.0 7.0 0.00 0.00 0.00 65 1021.9
20260505100333 59 291 1.0 5.0 0.00 0.12 0.00 68 1021.8
20260505095357 59 277 1.0 4.0 0.00 0.12 0.00 67 1021.4
20260505094351 61 294 0.0 6.0 0.00 0.12 0.00 65 1021.3
20260505093334 61 296 3.0 7.0 0.00 0.12 0.00 65 1021.3
20260505092326 62 298 4.0 7.0 0.00 0.12 0.00 66 1021.2
20260505091343 62 297 4.0 9.0 0.00 0.12 0.00 64 1021.2
20260505090341 62 305 4.0 9.0 0.00 0.12 0.00 63 1021.1
20260505085331 63 301 6.0 11.0 0.00 0.12 0.00 62 1020.9
20260505084334 63 306 4.0 12.0 0.00 0.12 0.00 61 1020.8
20260505083348 63 294 4.0 9.0 0.00 0.12 0.00 64 1020.8
20260505082330 63 297 2.0 11.0 0.00 0.12 0.00 61 1020.8
20260505081353 64 306 5.0 12.0 0.00 0.12 0.00 61 1020.7
20260505080326 65 296 6.0 11.0 0.00 0.39 0.00 59 1020.8
20260505075350 66 272 5.0 11.0 0.00 0.39 0.00 59 1020.5
20260505074348 67 293 1.0 7.0 0.00 0.39 0.00 58 1020.4
20260505073403 67 319 0.0 4.0 0.00 0.39 0.00 60 1020.3
20260505072348 68 198 1.0 6.0 0.00 0.39 0.00 59 1020.1
20260505071337 67 298 1.0 7.0 0.00 0.39 0.00 55 1020.0
20260505070334 67 312 3.0 9.0 0.00 1.57 0.00 56 1020.0
20260505065341 66 303 3.0 9.0 0.00 1.57 0.00 55 1020.0
20260505064339 67 304 4.0 10.0 0.00 1.57 0.00 55 1019.9
20260505063352 67 342 1.0 5.0 0.00 1.57 0.00 57 1019.9
20260505062328 68 329 2.0 6.0 0.00 1.57 0.00 54 1020.0
20260505061325 68 279 1.0 4.0 0.00 1.57 0.00 53 1019.9
20260505060327 67 297 1.0 11.0 0.00 1.57 0.00 55 1019.8
20260505055322 68 277 3.0 7.0 0.00 1.57 0.00 54 1019.8
20260505054352 67 286 1.0 9.0 0.00 1.57 0.00 52 1019.7
20260505053331 68 276 1.0 8.0 0.00 1.57 0.00 52 1019.8
20260505052327 68 320 0.0 6.0 0.00 1.57 0.00 51 1019.8
20260505051347 68 293 1.0 4.0 0.00 1.57 0.00 50 1019.9
20260505050333 67 272 5.0 9.0 0.00 1.57 0.00 49 1019.9
20260505041353 67 349 1.0 7.0 0.00 1.57 0.00 48 1019.8
20260505040341 67 317 1.0 9.0 0.00 1.57 0.00 52 1020.2
20260505035400 67 350 2.0 6.0 0.00 1.57 0.00 53 1020.2
20260505034348 66 143 3.0 7.0 0.00 1.57 0.00 50 1020.0
20260505033346 66 284 2.0 9.0 0.00 1.57 0.00 51 1020.1
20260505032347 67 306 2.0 9.0 0.00 1.57 0.00 53 1020.0
20260505031323 67 1 2.0 7.0 0.00 1.57 0.00 48 1020.2
20260505030328 67 331 3.0 8.0 0.00 1.57 0.00 49 1020.2
20260505025351 67 283 1.0 5.0 0.00 1.57 0.00 51 1020.0
20260505024337 66 221 3.0 10.0 0.00 1.57 0.00 51 1020.2
20260505023354 66 214 2.0 8.0 0.00 1.57 0.00 52 1020.3
20260505022329 67 295 2.0 5.0 0.00 1.57 0.00 49 1020.1
20260505021331 67 288 1.0 6.0 0.00 1.57 0.00 52 1020.2
20260505020325 66 286 2.0 7.0 0.00 1.61 0.00 48 1020.1
20260505015349 66 126 0.0 5.0 0.00 1.61 0.00 51 1020.2
20260505014344 66 284 1.0 5.0 0.00 1.61 0.00 55 1020.3
20260505013337 64 331 2.0 9.0 0.00 1.61 0.00 56 1020.1
20260505012341 64 272 2.0 7.0 0.00 1.61 0.00 51 1020.1
20260505011332 65 286 2.0 5.0 0.00 1.61 0.00 56 1019.8
20260505010327 64 308 2.0 4.0 0.00 2.17 0.00 50 1019.9
20260505005350 65 273 2.0 7.0 0.00 2.17 0.00 55 1019.8
20260505004346 65 321 1.0 3.0 0.00 2.17 0.00 54 1019.8
20260505003336 65 268 1.0 6.0 0.00 2.17 0.00 56 1019.6
20260505002338 66 313 1.0 5.0 0.00 2.17 0.00 51 1019.7
20260505001333 66 302 1.0 3.0 0.00 2.17 0.00 49 1019.6
20260505000327 65 289 2.0 6.0 0.00 2.32 0.00 49 1019.4
20260504235332 65 304 0.0 4.0 0.00 2.32 0.00 59 1019.3
20260504234330 64 291 0.0 6.0 0.00 2.32 0.00 56 1019.4
20260504233333 63 258 0.0 3.0 0.00 2.32 0.00 57 1019.4
20260504232329 63 251 1.0 4.0 0.00 2.32 0.00 59 1019.1
20260504231413 62 241 0.0 5.0 0.00 2.32 0.00 53 1019.1
20260504230326 61 295 1.0 6.0 0.00 2.48 0.00 54 1019.0
20260504225349 61 344 1.0 4.0 0.00 2.48 0.00 54 1019.0
20260504224342 60 251 0.0 3.0 0.00 2.48 0.00 60 1018.8
20260504223338 60 298 0.0 4.0 0.00 2.48 0.00 65 1018.7
20260504222338 58 298 0.0 2.0 0.00 2.48 0.00 62 1018.7
20260504221338 56 251 0.0 1.0 0.00 2.48 0.00 67 1018.5
20260504220342 55 283 0.0 4.0 0.00 3.11 0.00 67 1018.6
20260504215338 53 251 0.0 2.0 0.00 3.11 0.00 69 1018.4
20260504214413 52 268 0.0 3.0 0.00 3.11 0.00 73 1018.1
20260504213323 49 291 0.0 1.0 0.00 3.11 0.00 83 1018.0
20260504212334 48 291 0.0 1.0 0.00 3.11 0.00 88 1018.1
20260504211334 47 291 0.0 1.0 0.00 3.11 0.00 90 1018.0
20260504210343 46 291 0.0 1.0 0.00 3.19 0.00 91 1017.8
20260504205323 45 291 0.0 1.0 0.00 3.19 0.00 92 1017.7
20260504204337 45 291 0.0 0.0 0.00 3.19 0.00 93 1017.5
20260504203339 45 291 0.0 1.0 0.00 3.19 0.00 92 1017.3
20260504202350 44 291 0.0 1.0 0.00 3.19 0.00 92 1017.2
20260504201330 44 291 0.0 1.0 0.00 3.19 0.00 92 1017.0
20260504200330 44 291 0.0 1.0 0.00 3.27 0.00 90 1016.7
20260504195347 44 291 0.0 1.0 0.00 3.27 0.00 91 1016.4
20260504194336 45 291 0.0 1.0 0.00 3.27 0.00 90 1016.1
20260504193333 45 291 0.0 1.0 0.00 3.27 0.00 90 1015.9
20260504192337 46 291 0.0 1.0 0.00 3.27 0.00 89 1015.8
20260504191402 46 291 0.0 1.0 0.00 3.27 0.00 87 1015.6
20260504190339 46 291 0.0 1.0 0.00 3.31 0.00 86 1015.4
20260504185349 47 317 0.0 1.0 0.00 3.31 0.00 84 1015.4
20260504184350 48 320 0.0 1.0 0.00 3.31 0.00 82 1015.3
20260504183330 49 320 0.0 1.0 0.00 3.31 0.00 78 1015.0
20260504182350 50 328 1.0 4.0 0.00 3.31 0.00 74 1014.8
20260504181330 50 302 0.0 2.0 0.00 3.31 0.00 74 1014.4
20260504180337 51 277 0.0 5.0 0.00 3.35 0.00 70 1013.9
20260504175352 51 307 3.0 8.0 0.00 3.35 0.00 67 1013.6
20260504174337 50 350 1.0 7.0 0.00 3.35 0.00 69 1013.6